HULIANWANG DIGUI-74

导读

HULIANWANG DIGUI-74是中国于2025年8月25日发射的低轨互联网卫星,国际标识为2025-187B,目前已稳定在轨运行超140天。该卫星运行在倾角约50度、高度约1150公里的近地轨道,周期约108分钟,属于我国卫星互联网星座组网的组成部分。低轨互联网卫星作为“空中基站”,可突破地理限制,为全球偏远地区、海洋、空域提供宽带网络接入,助力天地一体化信息网络建设,推动卫星互联网服务普及。

Basic Information
目录编号:
65306
目录名称:
HULIANWANG DIGUI-74
国际标识:
2025-187B
轨道中心:
EARTH
卫星名称:
HULIANWANG DIGUI-74
卫星全名:
HULIANWANG DIGUI-74
卫星状态:
在轨 (已飞行336 天)
发射日期:
2025-08-25 UTC
国别 :
中国 (CN)
星等 :
--
Orbit Information
数据来源 国际轨道数据 AOE轨道数据
星历时间 2026-07-27T23:25:13+0800
8小时前
查看轨道信息
2026-07-27T10:00:00+0800
21小时前
查看轨道信息
半长轴 7527.459km 7527.457km
偏心率 0.0000065 0.0000019
轨道倾角 50.010° 50.010°
近地点辐角 96.653° 89.554°
升交点赤经 60.755° 62.761°
平近点角 263.435° 112.879°
近地点 1149.273km 1149.305km
远地点 1149.371km 1149.335km
周期 108.326分钟 108.326分钟
每日圈数 13.29322 13.293226
Detailed Information
使用方式:
暂无
2D Orbit Map
3D Orbit Map
Orbit Altitude Analysis Chart
Orbit Inclination Analysis Chart
Orbit Comprehensive Analysis Chart
View Comprehensive Chart